owner,sensor,date,latitude,longitude,vertical_datum,sea_water_practical_salinity,qcFlag 
NERRS,ioos:station:NOAA.NERRS:wkbfrwq:1,2014-01-02T17:45:00Z,30.4162,-87.8228,1.8,12.5,1111122 
NERRS,ioos:station:NOAA.NERRS:wkbfrwq:1,2014-01-02T18:45:00Z,30.4162,-87.8228,1.8,13.8,1111122 
NERRS,ioos:station:NOAA.NERRS:wkbfrwq:1,2014-01-02T19:45:00Z,30.4162,-87.8228,1.92,10.0,1111122 
NERRS,ioos:station:NOAA.NERRS:wkbfrwq:1,2014-01-02T20:45:00Z,30.4162,-87.8228,1.96,8.4,1111122 
NERRS,ioos:station:NOAA.NERRS:wkbfrwq:1,2014-01-02T21:45:00Z,30.4162,-87.8228,1.97,12.0,1111122 
NERRS,ioos:station:NOAA.NERRS:wkbfrwq:1,2014-01-02T23:45:00Z,30.4162,-87.8228,2.06,7.6,1111122 
NERRS,ioos:station:NOAA.NERRS:wkbfrwq:1,2014-01-03T00:45:00Z,30.4162,-87.8228,1.99,6.1,1111122 
NERRS,ioos:station:NOAA.NERRS:wkbfrwq:1,2014-01-03T01:45:00Z,30.4162,-87.8228,1.97,10.5,1111122 
NERRS,ioos:station:NOAA.NERRS:wkbfrwq:1,2014-01-03T03:45:00Z,30.4162,-87.8228,2.01,9.4,1111122 
NERRS,ioos:station:NOAA.NERRS:wkbfrwq:1,2014-01-03T08:45:00Z,30.4162,-87.8228,2.1,12.2,1111122 
NERRS,ioos:station:NOAA.NERRS:wkbfrwq:1,2014-01-03T09:45:00Z,30.4162,-87.8228,2.05,12.5,1111122 
NERRS,ioos:station:NOAA.NERRS:wkbfrwq:1,2014-01-03T10:45:00Z,30.4162,-87.8228,1.98,10.7,1111122 
NERRS,ioos:station:NOAA.NERRS:wkbfrwq:1,2014-01-03T11:45:00Z,30.4162,-87.8228,1.9,10.0,1111122 
NERRS,ioos:station:NOAA.NERRS:wkbfrwq:1,2014-01-03T13:45:00Z,30.4162,-87.8228,1.73,6.3,1111122 
NERRS,ioos:station:NOAA.NERRS:wkbfrwq:1,2014-01-03T14:45:00Z,30.4162,-87.8228,1.66,5.4,1111122 
NERRS,ioos:station:NOAA.NERRS:wkbfrwq:1,2014-01-03T15:45:00Z,30.4162,-87.8228,1.6,6.0,1111122 
NERRS,ioos:station:NOAA.NERRS:wkbfrwq:1,2014-01-03T17:45:00Z,30.4162,-87.8228,1.53,5.2,1111122 
NERRS,ioos:station:NOAA.NERRS:wkbfrwq:1,2014-01-03T18:45:00Z,30.4162,-87.8228,1.56,5.7,1111122 
NERRS,ioos:station:NOAA.NERRS:wkbfrwq:1,2014-01-03T19:45:00Z,30.4162,-87.8228,1.6,5.8,1111122 
NERRS,ioos:station:NOAA.NERRS:wkbfrwq:1,2014-01-03T20:45:00Z,30.4162,-87.8228,1.67,6.7,1111122 
NERRS,ioos:station:NOAA.NERRS:wkbfrwq:1,2014-01-03T21:45:00Z,30.4162,-87.8228,1.76,7.4,1111122 
NERRS,ioos:station:NOAA.NERRS:wkbfrwq:1,2014-01-03T22:45:00Z,30.4162,-87.8228,1.85,8.1,1111122 
NERRS,ioos:station:NOAA.NERRS:wkbfrwq:1,2014-01-03T23:45:00Z,30.4162,-87.8228,1.92,8.0,1111122 
NERRS,ioos:station:NOAA.NERRS:wkbfrwq:1,2014-01-04T00:45:00Z,30.4162,-87.8228,1.98,8.4,1111122 
NERRS,ioos:station:NOAA.NERRS:wkbfrwq:1,2014-01-04T01:45:00Z,30.4162,-87.8228,2.05,8.8,1111122 
NERRS,ioos:station:NOAA.NERRS:wkbfrwq:1,2014-01-04T02:45:00Z,30.4162,-87.8228,2.11,8.4,1111122 
NERRS,ioos:station:NOAA.NERRS:wkbfrwq:1,2014-01-04T03:45:00Z,30.4162,-87.8228,2.16,9.1,1111122 
NERRS,ioos:station:NOAA.NERRS:wkbfrwq:1,2014-01-04T04:45:00Z,30.4162,-87.8228,2.15,9.8,1111122 
NERRS,ioos:station:NOAA.NERRS:wkbfrwq:1,2014-01-04T05:45:00Z,30.4162,-87.8228,2.14,10.1,1111122 
NERRS,ioos:station:NOAA.NERRS:wkbfrwq:1,2014-01-04T06:45:00Z,30.4162,-87.8228,2.17,10.4,1111122 
NERRS,ioos:station:NOAA.NERRS:wkbfrwq:1,2014-01-04T07:45:00Z,30.4162,-87.8228,2.2,10.4,1111122 
NERRS,ioos:station:NOAA.NERRS:wkbfrwq:1,2014-01-04T08:45:00Z,30.4162,-87.8228,2.18,10.6,1111122 
NERRS,ioos:station:NOAA.NERRS:wkbfrwq:1,2014-01-04T09:45:00Z,30.4162,-87.8228,2.12,9.6,1111122 
NERRS,ioos:station:NOAA.NERRS:wkbfrwq:1,2014-01-04T10:45:00Z,30.4162,-87.8228,2.05,9.5,1111122 
NERRS,ioos:station:NOAA.NERRS:wkbfrwq:1,2014-01-04T11:45:00Z,30.4162,-87.8228,1.99,9.8,1111122 
NERRS,ioos:station:NOAA.NERRS:wkbfrwq:1,2014-01-04T12:45:00Z,30.4162,-87.8228,1.92,9.8,1111122 
NERRS,ioos:station:NOAA.NERRS:wkbfrwq:1,2014-01-04T13:45:00Z,30.4162,-87.8228,1.88,10.3,1111122 
NERRS,ioos:station:NOAA.NERRS:wkbfrwq:1,2014-01-04T14:45:00Z,30.4162,-87.8228,1.83,10.3,1111122 
NERRS,ioos:station:NOAA.NERRS:wkbfrwq:1,2014-01-04T15:45:00Z,30.4162,-87.8228,1.8,10.2,1111122 
NERRS,ioos:station:NOAA.NERRS:wkbfrwq:1,2014-01-04T16:45:00Z,30.4162,-87.8228,1.79,11.2,1111122 
NERRS,ioos:station:NOAA.NERRS:wkbfrwq:1,2014-01-04T17:45:00Z,30.4162,-87.8228,1.79,11.0,1111122 
NERRS,ioos:station:NOAA.NERRS:wkbfrwq:1,2014-01-04T18:45:00Z,30.4162,-87.8228,1.84,10.4,1111122 
NERRS,ioos:station:NOAA.NERRS:wkbfrwq:1,2014-01-04T19:45:00Z,30.4162,-87.8228,1.88,8.9,1111122 
NERRS,ioos:station:NOAA.NERRS:wkbfrwq:1,2014-01-04T20:45:00Z,30.4162,-87.8228,1.94,9.3,1111122 
NERRS,ioos:station:NOAA.NERRS:wkbfrwq:1,2014-01-04T21:45:00Z,30.4162,-87.8228,1.98,10.7,1111122 
NERRS,ioos:station:NOAA.NERRS:wkbfrwq:1,2014-01-04T22:45:00Z,30.4162,-87.8228,2.03,11.5,1111122 
NERRS,ioos:station:NOAA.NERRS:wkbfrwq:1,2014-01-04T23:45:00Z,30.4162,-87.8228,2.09,11.4,1111122 
NERRS,ioos:station:NOAA.NERRS:wkbfrwq:1,2014-01-05T00:45:00Z,30.4162,-87.8228,2.12,11.1,1111122 
NERRS,ioos:station:NOAA.NERRS:wkbfrwq:1,2014-01-05T01:45:00Z,30.4162,-87.8228,2.12,12.0,1111122 
NERRS,ioos:station:NOAA.NERRS:wkbfrwq:1,2014-01-05T02:45:00Z,30.4162,-87.8228,2.16,12.2,1111122 
NERRS,ioos:station:NOAA.NERRS:wkbfrwq:1,2014-01-05T03:45:00Z,30.4162,-87.8228,2.24,9.8,1111122 
NERRS,ioos:station:NOAA.NERRS:wkbfrwq:1,2014-01-05T04:45:00Z,30.4162,-87.8228,2.28,10.6,1111122 
NERRS,ioos:station:NOAA.NERRS:wkbfrwq:1,2014-01-05T05:45:00Z,30.4162,-87.8228,2.29,12.1,1111122 
NERRS,ioos:station:NOAA.NERRS:wkbfrwq:1,2014-01-05T06:45:00Z,30.4162,-87.8228,2.28,12.3,1111122 
NERRS,ioos:station:NOAA.NERRS:wkbfrwq:1,2014-01-05T07:45:00Z,30.4162,-87.8228,2.29,12.5,1111122 
NERRS,ioos:station:NOAA.NERRS:wkbfrwq:1,2014-01-05T08:45:00Z,30.4162,-87.8228,2.28,12.5,1111122 
NERRS,ioos:station:NOAA.NERRS:wkbfrwq:1,2014-01-05T09:45:00Z,30.4162,-87.8228,2.25,12.3,1111122 
NERRS,ioos:station:NOAA.NERRS:wkbfrwq:1,2014-01-05T10:45:00Z,30.4162,-87.8228,2.2,12.3,1111122 
NERRS,ioos:station:NOAA.NERRS:wkbfrwq:1,2014-01-05T11:45:00Z,30.4162,-87.8228,2.14,11.8,1111122 
NERRS,ioos:station:NOAA.NERRS:wkbfrwq:1,2014-01-05T12:45:00Z,30.4162,-87.8228,2.08,11.7,1111122 
NERRS,ioos:station:NOAA.NERRS:wkbfrwq:1,2014-01-05T13:45:00Z,30.4162,-87.8228,2.05,12.3,1111122 
NERRS,ioos:station:NOAA.NERRS:wkbfrwq:1,2014-01-05T14:45:00Z,30.4162,-87.8228,2.03,12.9,1111122 
NERRS,ioos:station:NOAA.NERRS:wkbfrwq:1,2014-01-05T15:45:00Z,30.4162,-87.8228,2.01,13.0,1111122 
NERRS,ioos:station:NOAA.NERRS:wkbfrwq:1,2014-01-05T16:45:00Z,30.4162,-87.8228,1.99,13.2,1111122 
NERRS,ioos:station:NOAA.NERRS:wkbfrwq:1,2014-01-05T17:45:00Z,30.4162,-87.8228,2.01,13.6,1111122 
NERRS,ioos:station:NOAA.NERRS:wkbfrwq:1,2014-01-05T18:45:00Z,30.4162,-87.8228,2.06,13.0,1111122 
NERRS,ioos:station:NOAA.NERRS:wkbfrwq:1,2014-01-05T19:45:00Z,30.4162,-87.8228,2.11,12.8,1111122 
NERRS,ioos:station:NOAA.NERRS:wkbfrwq:1,2014-01-05T20:45:00Z,30.4162,-87.8228,2.15,13.4,1111122 
NERRS,ioos:station:NOAA.NERRS:wkbfrwq:1,2014-01-05T21:45:00Z,30.4162,-87.8228,2.2,12.8,1111122 
NERRS,ioos:station:NOAA.NERRS:wkbfrwq:1,2014-01-05T22:45:00Z,30.4162,-87.8228,2.26,12.5,1111122 
NERRS,ioos:station:NOAA.NERRS:wkbfrwq:1,2014-01-05T23:45:00Z,30.4162,-87.8228,2.3,12.9,1111122 
NERRS,ioos:station:NOAA.NERRS:wkbfrwq:1,2014-01-06T00:45:00Z,30.4162,-87.8228,2.32,13.5,1111122 
NERRS,ioos:station:NOAA.NERRS:wkbfrwq:1,2014-01-06T01:45:00Z,30.4162,-87.8228,2.36,13.4,1111122 
NERRS,ioos:station:NOAA.NERRS:wkbfrwq:1,2014-01-06T02:45:00Z,30.4162,-87.8228,2.4,12.5,1111122 
NERRS,ioos:station:NOAA.NERRS:wkbfrwq:1,2014-01-06T03:45:00Z,30.4162,-87.8228,2.48,11.9,1111122 
NERRS,ioos:station:NOAA.NERRS:wkbfrwq:1,2014-01-06T04:45:00Z,30.4162,-87.8228,2.52,10.9,1111122 
NERRS,ioos:station:NOAA.NERRS:wkbfrwq:1,2014-01-06T05:45:00Z,30.4162,-87.8228,2.54,11.1,1111122 
NERRS,ioos:station:NOAA.NERRS:wkbfrwq:1,2014-01-06T06:45:00Z,30.4162,-87.8228,2.46,7.7,1111122 
NERRS,ioos:station:NOAA.NERRS:wkbfrwq:1,2014-01-06T07:45:00Z,30.4162,-87.8228,2.32,9.0,1111122 
NERRS,ioos:station:NOAA.NERRS:wkbfrwq:1,2014-01-06T09:45:00Z,30.4162,-87.8228,2.16,7.2,1111122 
NERRS,ioos:station:NOAA.NERRS:wkbfrwq:1,2014-01-06T10:45:00Z,30.4162,-87.8228,2.14,6.4,1111122 
NERRS,ioos:station:NOAA.NERRS:wkbfrwq:1,2014-01-06T12:45:00Z,30.4162,-87.8228,1.97,6.8,1111122 
NERRS,ioos:station:NOAA.NERRS:wkbfrwq:1,2014-01-06T13:45:00Z,30.4162,-87.8228,1.95,5.9,1111122 
NERRS,ioos:station:NOAA.NERRS:wkbfrwq:1,2014-01-06T14:45:00Z,30.4162,-87.8228,1.9,5.6,1111122 
NERRS,ioos:station:NOAA.NERRS:wkbfrwq:1,2014-01-06T15:45:00Z,30.4162,-87.8228,1.84,5.8,1111122 
NERRS,ioos:station:NOAA.NERRS:wkbfrwq:1,2014-01-06T16:45:00Z,30.4162,-87.8228,1.8,6.0,1111122 
NERRS,ioos:station:NOAA.NERRS:wkbfrwq:1,2014-01-06T17:45:00Z,30.4162,-87.8228,1.79,6.0,1111122 
NERRS,ioos:station:NOAA.NERRS:wkbfrwq:1,2014-01-06T18:45:00Z,30.4162,-87.8228,1.8,6.0,1111122 
NERRS,ioos:station:NOAA.NERRS:wkbfrwq:1,2014-01-06T19:45:00Z,30.4162,-87.8228,1.87,6.3,1111122 
NERRS,ioos:station:NOAA.NERRS:wkbfrwq:1,2014-01-06T20:45:00Z,30.4162,-87.8228,1.9,6.4,1111122 
NERRS,ioos:station:NOAA.NERRS:wkbfrwq:1,2014-01-06T22:45:00Z,30.4162,-87.8228,1.94,7.9,1111122 
NERRS,ioos:station:NOAA.NERRS:wkbfrwq:1,2014-01-06T23:45:00Z,30.4162,-87.8228,2.02,6.6,1111122 
NERRS,ioos:station:NOAA.NERRS:wkbfrwq:1,2014-01-07T00:45:00Z,30.4162,-87.8228,0.0,7.3,1111122 
NERRS,ioos:station:NOAA.NERRS:wkbfrwq:1,2014-01-07T01:45:00Z,30.4162,-87.8228,2.02,6.5,1111122 
NERRS,ioos:station:NOAA.NERRS:wkbfrwq:1,2014-01-07T02:45:00Z,30.4162,-87.8228,1.98,7.0,1111122 
NERRS,ioos:station:NOAA.NERRS:wkbfrwq:1,2014-01-07T03:45:00Z,30.4162,-87.8228,1.95,6.0,1111122 
NERRS,ioos:station:NOAA.NERRS:wkbfrwq:1,2014-01-07T04:45:00Z,30.4162,-87.8228,1.96,6.4,1111122 
NERRS,ioos:station:NOAA.NERRS:wkbfrwq:1,2014-01-07T05:45:00Z,30.4162,-87.8228,1.98,6.5,1111122 
NERRS,ioos:station:NOAA.NERRS:wkbfrwq:1,2014-01-07T06:45:00Z,30.4162,-87.8228,1.99,6.1,1111122 
NERRS,ioos:station:NOAA.NERRS:wkbfrwq:1,2014-01-07T07:45:00Z,30.4162,-87.8228,1.95,8.1,1111122 
NERRS,ioos:station:NOAA.NERRS:wkbfrwq:1,2014-01-07T08:45:00Z,30.4162,-87.8228,1.92,10.7,1111122 
NERRS,ioos:station:NOAA.NERRS:wkbfrwq:1,2014-01-07T09:45:00Z,30.4162,-87.8228,1.88,7.3,1111122 
NERRS,ioos:station:NOAA.NERRS:wkbfrwq:1,2014-01-07T10:45:00Z,30.4162,-87.8228,1.86,10.9,1111122 
NERRS,ioos:station:NOAA.NERRS:wkbfrwq:1,2014-01-07T11:45:00Z,30.4162,-87.8228,1.88,10.9,1111122 
NERRS,ioos:station:NOAA.NERRS:wkbfrwq:1,2014-01-07T12:45:00Z,30.4162,-87.8228,1.91,7.2,1111122 
NERRS,ioos:station:NOAA.NERRS:wkbfrwq:1,2014-01-07T13:45:00Z,30.4162,-87.8228,1.91,9.4,1111122 
NERRS,ioos:station:NOAA.NERRS:wkbfrwq:1,2014-01-07T14:45:00Z,30.4162,-87.8228,1.88,8.7,1111122 
NERRS,ioos:station:NOAA.NERRS:wkbfrwq:1,2014-01-07T15:45:00Z,30.4162,-87.8228,1.85,10.4,1111122 
NERRS,ioos:station:NOAA.NERRS:wkbfrwq:1,2014-01-07T16:45:00Z,30.4162,-87.8228,1.85,10.4,1111122 
NERRS,ioos:station:NOAA.NERRS:wkbfrwq:1,2014-01-07T17:45:00Z,30.4162,-87.8228,1.92,6.3,1111122 
NERRS,ioos:station:NOAA.NERRS:wkbfrwq:1,2014-01-07T18:45:00Z,30.4162,-87.8228,1.99,6.3,1111122 
NERRS,ioos:station:NOAA.NERRS:wkbfrwq:1,2014-01-07T19:45:00Z,30.4162,-87.8228,2.01,7.2,1111122 
NERRS,ioos:station:NOAA.NERRS:wkbfrwq:1,2014-01-07T21:45:00Z,30.4162,-87.8228,2.03,8.9,1111122 
NERRS,ioos:station:NOAA.NERRS:wkbfrwq:1,2014-01-07T22:45:00Z,30.4162,-87.8228,2.05,8.7,1111122 
NERRS,ioos:station:NOAA.NERRS:wkbfrwq:1,2014-01-07T23:45:00Z,30.4162,-87.8228,2.03,8.2,1111122 
NERRS,ioos:station:NOAA.NERRS:wkbfrwq:1,2014-01-08T00:45:00Z,30.4162,-87.8228,1.98,9.1,1111122 
NERRS,ioos:station:NOAA.NERRS:wkbfrwq:1,2014-01-08T01:45:00Z,30.4162,-87.8228,1.93,9.0,1111122 
NERRS,ioos:station:NOAA.NERRS:wkbfrwq:1,2014-01-08T02:45:00Z,30.4162,-87.8228,1.9,9.7,1111122 
NERRS,ioos:station:NOAA.NERRS:wkbfrwq:1,2014-01-08T03:45:00Z,30.4162,-87.8228,1.9,10.3,1111122 
NERRS,ioos:station:NOAA.NERRS:wkbfrwq:1,2014-01-08T04:45:00Z,30.4162,-87.8228,1.9,9.8,1111122 
NERRS,ioos:station:NOAA.NERRS:wkbfrwq:1,2014-01-08T05:45:00Z,30.4162,-87.8228,1.88,9.1,1111122 
NERRS,ioos:station:NOAA.NERRS:wkbfrwq:1,2014-01-08T06:45:00Z,30.4162,-87.8228,1.84,9.3,1111122 
NERRS,ioos:station:NOAA.NERRS:wkbfrwq:1,2014-01-08T07:45:00Z,30.4162,-87.8228,1.81,9.3,1111122 
NERRS,ioos:station:NOAA.NERRS:wkbfrwq:1,2014-01-08T08:45:00Z,30.4162,-87.8228,1.78,9.9,1111122 
NERRS,ioos:station:NOAA.NERRS:wkbfrwq:1,2014-01-08T09:45:00Z,30.4162,-87.8228,1.77,10.5,1111122 
NERRS,ioos:station:NOAA.NERRS:wkbfrwq:1,2014-01-08T10:45:00Z,30.4162,-87.8228,1.77,10.3,1111122 
NERRS,ioos:station:NOAA.NERRS:wkbfrwq:1,2014-01-08T11:45:00Z,30.4162,-87.8228,1.75,10.0,1111122 
NERRS,ioos:station:NOAA.NERRS:wkbfrwq:1,2014-01-08T12:45:00Z,30.4162,-87.8228,1.74,9.8,1111122 
NERRS,ioos:station:NOAA.NERRS:wkbfrwq:1,2014-01-08T13:45:00Z,30.4162,-87.8228,1.73,9.8,1111122 
NERRS,ioos:station:NOAA.NERRS:wkbfrwq:1,2014-01-08T14:45:00Z,30.4162,-87.8228,1.77,9.8,1111122 
NERRS,ioos:station:NOAA.NERRS:wkbfrwq:1,2014-01-08T15:45:00Z,30.4162,-87.8228,1.83,7.1,1111122 
NERRS,ioos:station:NOAA.NERRS:wkbfrwq:1,2014-01-08T16:45:00Z,30.4162,-87.8228,1.91,6.8,1111122 
NERRS,ioos:station:NOAA.NERRS:wkbfrwq:1,2014-01-08T17:45:00Z,30.4162,-87.8228,1.98,8.0,1111122 
NERRS,ioos:station:NOAA.NERRS:wkbfrwq:1,2014-01-08T19:45:00Z,30.4162,-87.8228,2.1,8.1,1111122 
NERRS,ioos:station:NOAA.NERRS:wkbfrwq:1,2014-01-08T20:45:00Z,30.4162,-87.8228,2.2,8.0,1111122 
NERRS,ioos:station:NOAA.NERRS:wkbfrwq:1,2014-01-08T21:45:00Z,30.4162,-87.8228,2.26,8.2,1111122 
NERRS,ioos:station:NOAA.NERRS:wkbfrwq:1,2014-01-08T22:45:00Z,30.4162,-87.8228,2.26,8.4,1111122 
NERRS,ioos:station:NOAA.NERRS:wkbfrwq:1,2014-01-08T23:45:00Z,30.4162,-87.8228,2.27,8.3,1111122 
NERRS,ioos:station:NOAA.NERRS:wkbfrwq:1,2014-01-09T00:45:00Z,30.4162,-87.8228,2.28,8.6,1111122 
NERRS,ioos:station:NOAA.NERRS:wkbfrwq:1,2014-01-09T01:45:00Z,30.4162,-87.8228,2.28,8.6,1111122 
NERRS,ioos:station:NOAA.NERRS:wkbfrwq:1,2014-01-09T02:45:00Z,30.4162,-87.8228,2.25,8.7,1111122 
NERRS,ioos:station:NOAA.NERRS:wkbfrwq:1,2014-01-09T03:45:00Z,30.4162,-87.8228,2.2,8.7,1111122 
NERRS,ioos:station:NOAA.NERRS:wkbfrwq:1,2014-01-09T04:45:00Z,30.4162,-87.8228,2.13,8.7,1111122 
NERRS,ioos:station:NOAA.NERRS:wkbfrwq:1,2014-01-09T05:45:00Z,30.4162,-87.8228,2.08,8.5,1111122 
NERRS,ioos:station:NOAA.NERRS:wkbfrwq:1,2014-01-09T06:45:00Z,30.4162,-87.8228,2.02,8.3,1111122 
NERRS,ioos:station:NOAA.NERRS:wkbfrwq:1,2014-01-09T07:45:00Z,30.4162,-87.8228,1.98,8.7,1111122 
NERRS,ioos:station:NOAA.NERRS:wkbfrwq:1,2014-01-09T08:45:00Z,30.4162,-87.8228,1.96,9.1,1111122 
NERRS,ioos:station:NOAA.NERRS:wkbfrwq:1,2014-01-09T09:45:00Z,30.4162,-87.8228,1.95,9.6,1111122 
NERRS,ioos:station:NOAA.NERRS:wkbfrwq:1,2014-01-09T10:45:00Z,30.4162,-87.8228,1.92,8.8,1111122 
NERRS,ioos:station:NOAA.NERRS:wkbfrwq:1,2014-01-09T11:45:00Z,30.4162,-87.8228,1.88,9.3,1111122 
NERRS,ioos:station:NOAA.NERRS:wkbfrwq:1,2014-01-09T12:45:00Z,30.4162,-87.8228,1.89,9.6,1111122 
NERRS,ioos:station:NOAA.NERRS:wkbfrwq:1,2014-01-09T13:45:00Z,30.4162,-87.8228,1.93,9.5,1111122 
NERRS,ioos:station:NOAA.NERRS:wkbfrwq:1,2014-01-09T14:45:00Z,30.4162,-87.8228,1.98,9.1,1111122 
NERRS,ioos:station:NOAA.NERRS:wkbfrwq:1,2014-01-09T15:45:00Z,30.4162,-87.8228,2.04,8.7,1111122 
NERRS,ioos:station:NOAA.NERRS:wkbfrwq:1,2014-01-09T16:45:00Z,30.4162,-87.8228,2.07,9.0,1111122 
NERRS,ioos:station:NOAA.NERRS:wkbfrwq:1,2014-01-09T17:45:00Z,30.4162,-87.8228,2.1,9.4,1111122 
NERRS,ioos:station:NOAA.NERRS:wkbfrwq:1,2014-01-09T18:45:00Z,30.4162,-87.8228,2.16,9.0,1111122 
NERRS,ioos:station:NOAA.NERRS:wkbfrwq:1,2014-01-09T19:45:00Z,30.4162,-87.8228,2.23,9.2,1111122 
NERRS,ioos:station:NOAA.NERRS:wkbfrwq:1,2014-01-09T20:45:00Z,30.4162,-87.8228,2.28,9.6,1111122 
NERRS,ioos:station:NOAA.NERRS:wkbfrwq:1,2014-01-09T21:45:00Z,30.4162,-87.8228,2.29,10.2,1111122 
NERRS,ioos:station:NOAA.NERRS:wkbfrwq:1,2014-01-09T22:45:00Z,30.4162,-87.8228,2.33,10.1,1111122 
NERRS,ioos:station:NOAA.NERRS:wkbfrwq:1,2014-01-09T23:45:00Z,30.4162,-87.8228,2.36,10.0,1111122 
NERRS,ioos:station:NOAA.NERRS:wkbfrwq:1,2014-01-10T00:45:00Z,30.4162,-87.8228,2.38,10.2,1111122 
NERRS,ioos:station:NOAA.NERRS:wkbfrwq:1,2014-01-10T01:45:00Z,30.4162,-87.8228,2.37,10.3,1111122 
NERRS,ioos:station:NOAA.NERRS:wkbfrwq:1,2014-01-10T02:45:00Z,30.4162,-87.8228,2.34,10.3,1111122 
NERRS,ioos:station:NOAA.NERRS:wkbfrwq:1,2014-01-10T03:45:00Z,30.4162,-87.8228,2.27,9.6,1111122 
NERRS,ioos:station:NOAA.NERRS:wkbfrwq:1,2014-01-10T04:45:00Z,30.4162,-87.8228,2.18,9.7,1111122 
NERRS,ioos:station:NOAA.NERRS:wkbfrwq:1,2014-01-10T05:45:00Z,30.4162,-87.8228,2.14,9.8,1111122 
NERRS,ioos:station:NOAA.NERRS:wkbfrwq:1,2014-01-10T06:45:00Z,30.4162,-87.8228,2.1,9.7,1111122 
NERRS,ioos:station:NOAA.NERRS:wkbfrwq:1,2014-01-10T07:45:00Z,30.4162,-87.8228,2.05,10.0,1111122 
NERRS,ioos:station:NOAA.NERRS:wkbfrwq:1,2014-01-10T08:45:00Z,30.4162,-87.8228,2.01,10.0,1111122 
NERRS,ioos:station:NOAA.NERRS:wkbfrwq:1,2014-01-10T09:45:00Z,30.4162,-87.8228,1.97,9.8,1111122 
NERRS,ioos:station:NOAA.NERRS:wkbfrwq:1,2014-01-10T10:45:00Z,30.4162,-87.8228,1.93,9.9,1111122 
NERRS,ioos:station:NOAA.NERRS:wkbfrwq:1,2014-01-10T11:45:00Z,30.4162,-87.8228,1.88,9.9,1111122 
NERRS,ioos:station:NOAA.NERRS:wkbfrwq:1,2014-01-10T12:45:00Z,30.4162,-87.8228,1.88,10.5,1111122 
NERRS,ioos:station:NOAA.NERRS:wkbfrwq:1,2014-01-10T13:45:00Z,30.4162,-87.8228,1.93,11.0,1111122 
NERRS,ioos:station:NOAA.NERRS:wkbfrwq:1,2014-01-10T14:45:00Z,30.4162,-87.8228,1.99,10.7,1111122 
NERRS,ioos:station:NOAA.NERRS:wkbfrwq:1,2014-01-10T15:45:00Z,30.4162,-87.8228,2.04,11.0,1111122 
NERRS,ioos:station:NOAA.NERRS:wkbfrwq:1,2014-01-10T16:45:00Z,30.4162,-87.8228,2.08,10.8,1111122 
NERRS,ioos:station:NOAA.NERRS:wkbfrwq:1,2014-01-10T17:45:00Z,30.4162,-87.8228,2.13,10.2,1111122 
NERRS,ioos:station:NOAA.NERRS:wkbfrwq:1,2014-01-10T18:45:00Z,30.4162,-87.8228,2.19,10.4,1111122 
NERRS,ioos:station:NOAA.NERRS:wkbfrwq:1,2014-01-10T19:45:00Z,30.4162,-87.8228,2.22,10.2,1111122 
NERRS,ioos:station:NOAA.NERRS:wkbfrwq:1,2014-01-10T20:45:00Z,30.4162,-87.8228,2.28,9.8,1111122 
NERRS,ioos:station:NOAA.NERRS:wkbfrwq:1,2014-01-10T21:45:00Z,30.4162,-87.8228,2.35,9.1,1111122 
NERRS,ioos:station:NOAA.NERRS:wkbfrwq:1,2014-01-10T22:45:00Z,30.4162,-87.8228,2.4,9.3,1111122 
NERRS,ioos:station:NOAA.NERRS:wkbfrwq:1,2014-01-10T23:45:00Z,30.4162,-87.8228,2.41,10.7,1111122 
NERRS,ioos:station:NOAA.NERRS:wkbfrwq:1,2014-01-11T00:45:00Z,30.4162,-87.8228,2.4,11.4,1111122 
NERRS,ioos:station:NOAA.NERRS:wkbfrwq:1,2014-01-11T01:45:00Z,30.4162,-87.8228,2.39,11.3,1111122 
NERRS,ioos:station:NOAA.NERRS:wkbfrwq:1,2014-01-11T02:45:00Z,30.4162,-87.8228,2.41,11.7,1111122 
NERRS,ioos:station:NOAA.NERRS:wkbfrwq:1,2014-01-11T03:45:00Z,30.4162,-87.8228,2.41,11.6,1111122 
NERRS,ioos:station:NOAA.NERRS:wkbfrwq:1,2014-01-11T04:45:00Z,30.4162,-87.8228,2.36,10.6,1111122 
NERRS,ioos:station:NOAA.NERRS:wkbfrwq:1,2014-01-11T05:45:00Z,30.4162,-87.8228,2.27,10.3,1111122 
NERRS,ioos:station:NOAA.NERRS:wkbfrwq:1,2014-01-11T06:45:00Z,30.4162,-87.8228,2.21,9.9,1111122 
NERRS,ioos:station:NOAA.NERRS:wkbfrwq:1,2014-01-11T07:45:00Z,30.4162,-87.8228,2.17,9.7,1111122 
NERRS,ioos:station:NOAA.NERRS:wkbfrwq:1,2014-01-11T08:45:00Z,30.4162,-87.8228,2.1,9.8,1111122 
NERRS,ioos:station:NOAA.NERRS:wkbfrwq:1,2014-01-11T09:45:00Z,30.4162,-87.8228,2.06,10.0,1111122 
NERRS,ioos:station:NOAA.NERRS:wkbfrwq:1,2014-01-11T10:45:00Z,30.4162,-87.8228,2.03,9.9,1111122 
NERRS,ioos:station:NOAA.NERRS:wkbfrwq:1,2014-01-11T11:45:00Z,30.4162,-87.8228,2.01,9.5,1111122 
NERRS,ioos:station:NOAA.NERRS:wkbfrwq:1,2014-01-11T12:45:00Z,30.4162,-87.8228,2.0,10.1,1111122 
NERRS,ioos:station:NOAA.NERRS:wkbfrwq:1,2014-01-11T13:45:00Z,30.4162,-87.8228,2.05,9.9,1111122 
NERRS,ioos:station:NOAA.NERRS:wkbfrwq:1,2014-01-11T14:45:00Z,30.4162,-87.8228,2.16,8.9,1111122 
NERRS,ioos:station:NOAA.NERRS:wkbfrwq:1,2014-01-11T15:45:00Z,30.4162,-87.8228,2.26,9.1,1111122 
NERRS,ioos:station:NOAA.NERRS:wkbfrwq:1,2014-01-11T16:45:00Z,30.4162,-87.8228,2.23,9.3,1111122 
NERRS,ioos:station:NOAA.NERRS:wkbfrwq:1,2014-01-11T17:45:00Z,30.4162,-87.8228,2.16,9.6,1111122 
NERRS,ioos:station:NOAA.NERRS:wkbfrwq:1,2014-01-11T18:45:00Z,30.4162,-87.8228,2.1,8.7,1111122 
NERRS,ioos:station:NOAA.NERRS:wkbfrwq:1,2014-01-11T19:45:00Z,30.4162,-87.8228,2.19,9.2,1111122 
NERRS,ioos:station:NOAA.NERRS:wkbfrwq:1,2014-01-11T20:45:00Z,30.4162,-87.8228,2.28,8.5,1111122 
NERRS,ioos:station:NOAA.NERRS:wkbfrwq:1,2014-01-11T21:45:00Z,30.4162,-87.8228,2.34,8.8,1111122 
NERRS,ioos:station:NOAA.NERRS:wkbfrwq:1,2014-01-11T22:45:00Z,30.4162,-87.8228,2.34,9.0,1111122 
NERRS,ioos:station:NOAA.NERRS:wkbfrwq:1,2014-01-11T23:45:00Z,30.4162,-87.8228,2.37,9.4,1111122 
NERRS,ioos:station:NOAA.NERRS:wkbfrwq:1,2014-01-12T00:45:00Z,30.4162,-87.8228,2.36,9.5,1111122 
NERRS,ioos:station:NOAA.NERRS:wkbfrwq:1,2014-01-12T01:45:00Z,30.4162,-87.8228,2.33,8.4,1111122 
NERRS,ioos:station:NOAA.NERRS:wkbfrwq:1,2014-01-12T02:45:00Z,30.4162,-87.8228,2.3,8.9,1111122 
NERRS,ioos:station:NOAA.NERRS:wkbfrwq:1,2014-01-12T03:45:00Z,30.4162,-87.8228,2.29,10.0,1111122 
NERRS,ioos:station:NOAA.NERRS:wkbfrwq:1,2014-01-12T04:45:00Z,30.4162,-87.8228,2.24,8.5,1111122 
NERRS,ioos:station:NOAA.NERRS:wkbfrwq:1,2014-01-12T05:45:00Z,30.4162,-87.8228,2.14,8.2,1111122 
NERRS,ioos:station:NOAA.NERRS:wkbfrwq:1,2014-01-12T06:45:00Z,30.4162,-87.8228,2.08,9.1,1111122 
NERRS,ioos:station:NOAA.NERRS:wkbfrwq:1,2014-01-12T08:45:00Z,30.4162,-87.8228,1.98,8.1,1111122 
NERRS,ioos:station:NOAA.NERRS:wkbfrwq:1,2014-01-12T09:45:00Z,30.4162,-87.8228,1.93,8.4,1111122 
NERRS,ioos:station:NOAA.NERRS:wkbfrwq:1,2014-01-12T10:45:00Z,30.4162,-87.8228,1.87,8.3,1111122 
NERRS,ioos:station:NOAA.NERRS:wkbfrwq:1,2014-01-12T11:45:00Z,30.4162,-87.8228,1.84,8.3,1111122 
NERRS,ioos:station:NOAA.NERRS:wkbfrwq:1,2014-01-12T12:45:00Z,30.4162,-87.8228,1.82,9.5,1111122 
NERRS,ioos:station:NOAA.NERRS:wkbfrwq:1,2014-01-12T13:45:00Z,30.4162,-87.8228,1.83,9.3,1111122 
NERRS,ioos:station:NOAA.NERRS:wkbfrwq:1,2014-01-12T14:45:00Z,30.4162,-87.8228,1.87,9.4,1111122 
NERRS,ioos:station:NOAA.NERRS:wkbfrwq:1,2014-01-12T15:45:00Z,30.4162,-87.8228,1.94,8.6,1111122 
NERRS,ioos:station:NOAA.NERRS:wkbfrwq:1,2014-01-12T16:45:00Z,30.4162,-87.8228,1.99,8.5,1111122 
NERRS,ioos:station:NOAA.NERRS:wkbfrwq:1,2014-01-12T17:45:00Z,30.4162,-87.8228,2.05,8.1,1111122 
NERRS,ioos:station:NOAA.NERRS:wkbfrwq:1,2014-01-12T18:45:00Z,30.4162,-87.8228,2.09,8.3,1111122 
NERRS,ioos:station:NOAA.NERRS:wkbfrwq:1,2014-01-12T19:45:00Z,30.4162,-87.8228,2.16,7.5,1111122 
NERRS,ioos:station:NOAA.NERRS:wkbfrwq:1,2014-01-12T20:45:00Z,30.4162,-87.8228,2.22,7.6,1111122 
NERRS,ioos:station:NOAA.NERRS:wkbfrwq:1,2014-01-12T21:45:00Z,30.4162,-87.8228,2.28,8.0,1111122 
NERRS,ioos:station:NOAA.NERRS:wkbfrwq:1,2014-01-12T22:45:00Z,30.4162,-87.8228,2.34,8.1,1111122 
NERRS,ioos:station:NOAA.NERRS:wkbfrwq:1,2014-01-12T23:45:00Z,30.4162,-87.8228,2.38,8.2,1111122 
NERRS,ioos:station:NOAA.NERRS:wkbfrwq:1,2014-01-13T00:45:00Z,30.4162,-87.8228,2.42,8.2,1111122 
NERRS,ioos:station:NOAA.NERRS:wkbfrwq:1,2014-01-13T01:45:00Z,30.4162,-87.8228,2.44,8.1,1111122 
NERRS,ioos:station:NOAA.NERRS:wkbfrwq:1,2014-01-13T02:45:00Z,30.4162,-87.8228,2.43,8.2,1111122 
NERRS,ioos:station:NOAA.NERRS:wkbfrwq:1,2014-01-13T03:45:00Z,30.4162,-87.8228,2.39,8.4,1111122 
NERRS,ioos:station:NOAA.NERRS:wkbfrwq:1,2014-01-13T04:45:00Z,30.4162,-87.8228,2.34,8.2,1111122 
NERRS,ioos:station:NOAA.NERRS:wkbfrwq:1,2014-01-13T05:45:00Z,30.4162,-87.8228,2.27,8.2,1111122 
NERRS,ioos:station:NOAA.NERRS:wkbfrwq:1,2014-01-13T06:45:00Z,30.4162,-87.8228,2.2,8.2,1111122 
NERRS,ioos:station:NOAA.NERRS:wkbfrwq:1,2014-01-13T07:45:00Z,30.4162,-87.8228,2.12,8.1,1111122 
NERRS,ioos:station:NOAA.NERRS:wkbfrwq:1,2014-01-13T08:45:00Z,30.4162,-87.8228,2.04,8.1,1111122 
NERRS,ioos:station:NOAA.NERRS:wkbfrwq:1,2014-01-13T09:45:00Z,30.4162,-87.8228,1.96,8.0,1111122 
NERRS,ioos:station:NOAA.NERRS:wkbfrwq:1,2014-01-13T10:45:00Z,30.4162,-87.8228,1.91,8.1,1111122 
NERRS,ioos:station:NOAA.NERRS:wkbfrwq:1,2014-01-13T11:45:00Z,30.4162,-87.8228,1.88,8.7,1111122 
NERRS,ioos:station:NOAA.NERRS:wkbfrwq:1,2014-01-13T12:45:00Z,30.4162,-87.8228,1.85,8.4,1111122 
NERRS,ioos:station:NOAA.NERRS:wkbfrwq:1,2014-01-13T13:45:00Z,30.4162,-87.8228,1.83,8.5,1111122 
NERRS,ioos:station:NOAA.NERRS:wkbfrwq:1,2014-01-13T14:45:00Z,30.4162,-87.8228,1.83,9.0,1111122 